TimeCEST,TemperatureF,Dew PointF,Humidity,Sea Level PressureIn,VisibilityMPH,Wind Direction,Wind SpeedMPH,Gust SpeedMPH,PrecipitationIn,Events,Conditions,WindDirDegrees,DateUTC
12:00 AM,48.2,37.4,66,29.95,-9999.0,WNW,6.9,-,N/A,,Clear,290,2012-10-10 22:00:00
12:30 AM,48.2,37.4,66,29.95,-9999.0,West,5.8,-,N/A,,Clear,260,2012-10-10 22:30:00
1:00 AM,46.4,39.2,76,29.95,-9999.0,Variable,2.3,-,N/A,,Clear,0,2012-10-10 23:00:00
2:00 AM,46.4,39.2,76,29.95,-9999.0,WNW,6.9,-,N/A,,Clear,290,2012-10-11 00:00:00
2:30 AM,42.8,37.4,81,29.95,-9999.0,Variable,3.5,-,N/A,,Clear,0,2012-10-11 00:30:00
3:00 AM,44.6,37.4,76,29.95,-9999.0,West,4.6,-,N/A,,Clear,280,2012-10-11 01:00:00
3:30 AM,44.6,37.4,76,29.95,-9999.0,NNW,4.6,-,N/A,,Clear,330,2012-10-11 01:30:00
4:00 AM,41.0,35.6,81,29.95,-9999.0,NW,6.9,-,N/A,,Clear,320,2012-10-11 02:00:00
4:30 AM,41.0,37.4,87,29.95,-9999.0,WNW,6.9,-,N/A,,Clear,300,2012-10-11 02:30:00
5:00 AM,42.8,37.4,81,29.95,-9999.0,Variable,1.2,-,N/A,,Clear,0,2012-10-11 03:00:00
5:30 AM,42.8,37.4,81,29.98,-9999.0,Variable,3.5,-,N/A,,Clear,0,2012-10-11 03:30:00
6:00 AM,39.2,35.6,87,29.98,-9999.0,Variable,2.3,-,N/A,,Clear,0,2012-10-11 04:00:00
6:30 AM,39.2,33.8,81,29.98,-9999.0,Variable,3.5,-,N/A,,Clear,0,2012-10-11 04:30:00
7:00 AM,39.2,35.6,87,29.98,-9999.0,Variable,3.5,-,N/A,,Clear,0,2012-10-11 05:00:00
7:30 AM,39.2,35.6,87,29.98,-9999.0,Variable,1.2,-,N/A,,Clear,0,2012-10-11 05:30:00
8:00 AM,42.8,39.2,87,29.98,-9999.0,West,5.8,-,N/A,,Clear,280,2012-10-11 06:00:00
8:30 AM,44.6,39.2,81,29.98,-9999.0,WNW,8.1,-,N/A,,Clear,300,2012-10-11 06:30:00
9:00 AM,48.2,37.4,66,30.01,-9999.0,WNW,10.4,-,N/A,,Clear,290,2012-10-11 07:00:00
9:30 AM,50.0,39.2,66,30.01,-9999.0,WNW,8.1,-,N/A,,Clear,300,2012-10-11 07:30:00
10:00 AM,51.8,37.4,58,30.01,-9999.0,WNW,5.8,-,N/A,,Clear,300,2012-10-11 08:00:00
10:30 AM,53.6,35.6,51,30.01,-9999.0,WNW,11.5,-,N/A,,Clear,290,2012-10-11 08:30:00
11:00 AM,53.6,33.8,47,30.01,-9999.0,WNW,11.5,-,N/A,,Clear,290,2012-10-11 09:00:00
11:30 AM,55.4,33.8,44,30.01,-9999.0,WNW,11.5,-,N/A,,Clear,290,2012-10-11 09:30:00
12:00 PM,55.4,33.8,44,30.01,-9999.0,WNW,10.4,-,N/A,,Clear,300,2012-10-11 10:00:00
12:30 PM,55.4,32.0,41,29.98,-9999.0,WNW,10.4,-,N/A,,Clear,290,2012-10-11 10:30:00
1:00 PM,57.2,32.0,38,29.98,-9999.0,WNW,11.5,-,N/A,,Clear,300,2012-10-11 11:00:00
1:30 PM,57.2,33.8,41,29.98,-9999.0,WNW,10.4,-,N/A,,Clear,300,2012-10-11 11:30:00
2:00 PM,57.2,33.8,41,29.98,-9999.0,West,10.4,-,N/A,,Clear,280,2012-10-11 12:00:00
2:30 PM,57.2,33.8,41,29.98,-9999.0,WNW,11.5,-,N/A,,Clear,290,2012-10-11 12:30:00
3:00 PM,57.2,32.0,38,29.98,-9999.0,WNW,9.2,-,N/A,,Clear,300,2012-10-11 13:00:00
3:30 PM,57.2,32.0,38,29.98,-9999.0,NW,9.2,-,N/A,,Clear,310,2012-10-11 13:30:00
4:00 PM,57.2,33.8,41,29.98,-9999.0,NW,9.2,-,N/A,,Clear,310,2012-10-11 14:00:00
4:30 PM,57.2,32.0,38,29.98,-9999.0,WNW,10.4,-,N/A,,Clear,300,2012-10-11 14:30:00
5:00 PM,57.2,33.8,41,29.98,-9999.0,West,6.9,-,N/A,,Clear,280,2012-10-11 15:00:00
5:30 PM,55.4,33.8,44,29.98,-9999.0,NNW,4.6,-,N/A,,Clear,330,2012-10-11 15:30:00
6:00 PM,51.8,35.6,54,29.98,-9999.0,NNW,5.8,-,N/A,,Clear,330,2012-10-11 16:00:00
6:30 PM,48.2,35.6,62,29.98,-9999.0,NNW,4.6,-,N/A,,Clear,340,2012-10-11 16:30:00
7:00 PM,44.6,35.6,71,29.98,-9999.0,Variable,2.3,-,N/A,,Clear,0,2012-10-11 17:00:00
7:30 PM,44.6,35.6,71,29.98,-9999.0,Calm,Calm,-,N/A,,Clear,0,2012-10-11 17:30:00
8:00 PM,42.8,35.6,76,29.98,-9999.0,Variable,1.2,-,N/A,,Clear,0,2012-10-11 18:00:00
8:30 PM,41.0,35.6,81,29.98,-9999.0,Variable,1.2,-,N/A,,Clear,0,2012-10-11 18:30:00
9:00 PM,41.0,35.6,81,29.98,6.2,NE,5.8,-,N/A,,Scattered Clouds,50,2012-10-11 19:00:00
9:30 PM,41.0,35.6,81,29.98,6.2,Calm,Calm,-,N/A,,Mostly Cloudy,0,2012-10-11 19:30:00
10:00 PM,41.0,35.6,81,30.01,-9999.0,Variable,2.3,-,N/A,,Clear,0,2012-10-11 20:00:00
10:30 PM,39.2,35.6,87,30.01,5.0,Variable,1.2,-,N/A,,Unknown,0,2012-10-11 20:30:00
11:00 PM,39.2,35.6,87,30.01,3.7,Variable,2.3,-,N/A,,Unknown,0,2012-10-11 21:00:00
11:30 PM,42.8,37.4,81,30.01,3.7,Variable,1.2,-,N/A,,Unknown,0,2012-10-11 21:30:00